Regional Weather Roundup
Issued by NWS

Home | Current Version | Previous Version | Graphics & Text | Print | Product List | Glossary Off
Versions: 1 2 3 4 5 6 7 8 9 10 11 12 13 14 15 16 17 18 19 20 21 22 23 24 25 26 27 28 29 30 31 32 33 34 35 36 37 38 39 40 41 42 43 44 45 46 47 48 49 50

000
ASUS43 KTOP 270008
RWRKS

WEATHER ROUNDUP FOR KANSAS
NATIONAL WEATHER SERVICE GOODLAND KS
600 PM CST SUN FEB 26 2017

NOTE:  "FAIR" INDICATES FEW OR NO CLOUDS BELOW 12,000 FEET WITH NO
SIGNIFICANT WEATHER AND/OR OBSTRUCTIONS TO VISIBILITY.

KSZ001>006-013>018-027>032-041>047-270100-
NORTHWEST KANSAS

CITY           SKY/WX    TMP DP  RH WIND       PRES   REMARKS
GOODLAND       CLEAR     42   7  23 SE12      29.84S
6HR MIN TEMP:  39; 6HR MAX TEMP:  45;

HAYS           CLEAR     46   6  19 NE6       29.93R
HILL CITY      CLEAR     45   8  22 N7        29.93R
6HR MIN TEMP:  45; 6HR MAX TEMP:  50;

RUSSELL        CLEAR     47   6  18 NW8       29.92R
6HR MIN TEMP:  46; 6HR MAX TEMP:  52;

$$

KSZ061>065-074>080-084>089-270100-
SOUTHWEST KANSAS

CITY           SKY/WX    TMP DP  RH WIND       PRES   REMARKS
DODGE CITY     CLEAR     49  11  21 E8        29.90R
6HR MIN TEMP:  47; 6HR MAX TEMP:  53;

ELKHART          N/A     48   9  20 E15         N/A
GARDEN CITY    CLEAR     48   7  18 E10       29.87S
6HR MIN TEMP:  45; 6HR MAX TEMP:  51;

GREAT BEND     CLEAR     48  12  23 NE5       29.94R
LIBERAL        CLEAR     52  10  19 SE9       29.86S
PRATT          CLEAR     47  17  30 NE7       29.92R
6HR MIN TEMP:  43; 6HR MAX TEMP:  50;

$$

KSZ066>073-081>083-090>101-270100-
SOUTHEAST KANSAS

CITY           SKY/WX    TMP DP  RH WIND       PRES   REMARKS
CHANUTE        CLEAR     47  29  49 SE6       29.96R
6HR MIN TEMP:  47; 6HR MAX TEMP:  52;

COFFEYVILLE    CLEAR     50  30  46 E6        29.95R
6HR MIN TEMP:  44; 6HR MAX TEMP:  54;

HUTCHINSON     CLEAR     49  22  34 N7        29.93R
6HR MIN TEMP:  48; 6HR MAX TEMP:  54;

MEDICINE LODGE   N/A     49  21  33 NE7       29.92R
NEWTON         CLEAR     48  23  37 NE5       29.93R
PARSONS        CLEAR     48  33  56 VRB3      29.96R
6HR MIN TEMP:  45; 6HR MAX TEMP:  52; 6HR PCP: TRACE;

WICHITA INTL   PTCLDY    50  24  36 N6        29.92R
6HR MIN TEMP:  46; 6HR MAX TEMP:  53;

WICHITA JABRA  CLEAR     50  26  39 N3        29.92R
6HR MIN TEMP:  46; 6HR MAX TEMP:  54;

WICHITA MCCONL CLEAR     51  25  35 SE3       29.92R
WINFIELD       CLEAR     50  29  44 NW7       29.92R
6HR MIN TEMP:  48; 6HR MAX TEMP:  55;

$$

KSZ007>012-019>026-033>040-048>060-102>105-270100-
NORTHEAST KANSAS

CITY           SKY/WX    TMP DP  RH WIND       PRES   REMARKS
CONCORDIA      CLEAR     46  10  23 NW8       29.93R
6HR MIN TEMP:  46; 6HR MAX TEMP:  52;

EMPORIA        CLEAR     47  26  44 SE6       29.93R
6HR MIN TEMP:  46; 6HR MAX TEMP:  53;

LAWRENCE         N/A     48  32  53 E9        29.95R
6HR MIN TEMP:  47; 6HR MAX TEMP:  54;

MANHATTAN      CLEAR     48  24  39 CALM      29.94R
6HR MIN TEMP:  48; 6HR MAX TEMP:  54;

MARYSVILLE     CLEAR     45  19  36 N9        29.93R
OLATHE IND     CLEAR     46  32  58 SE8       29.97R
6HR MIN TEMP:  46; 6HR MAX TEMP:  51;

OLATHE EXE     PTCLDY    45  35  68 SE9       29.97R
6HR MIN TEMP:  44; 6HR MAX TEMP:  50;

SALINA         CLEAR     51  14  22 NE5       29.94R
6HR MIN TEMP:  46; 6HR MAX TEMP:  55;

TOPEKA BILLARD CLEAR     51  24  34 CALM      29.94R
6HR MIN TEMP:  47; 6HR MAX TEMP:  54;

TOPEKA FORBES  CLEAR     49  25  39 SW5       29.94R
6HR MIN TEMP:  48; 6HR MAX TEMP:  54;

$$




USA.gov is the U.S. government's official web portal to all federal, state and local government web resources and services.